Regional Weather Roundup
Issued by NWS

Home | Current Version | Previous Version | Graphics & Text | Print | Product List | Glossary Off
Versions: 1 2 3 4 5 6 7 8 9 10 11 12 13 14 15 16 17 18 19 20 21 22 23 24 25 26 27 28 29 30 31 32 33 34 35 36 37 38 39 40 41 42 43 44 45 46 47 48 49 50

000
ASUS43 KMKX 011111
RWRWI

WISCONSIN REGIONAL WEATHER ROUNDUP
NATIONAL WEATHER SERVICE MILWAUKEE/SULLIVAN WI
500 AM CST SUN FEB 01 2015

NOTE: "FAIR" INDICATES FEW OR NO CLOUDS BELOW 12,000 FEET WITH NO
SIGNIFICANT WEATHER AND/OR OBSTRUCTIONS TO VISIBILITY.

WIZ001-002-006>008-014>016-023>028-011200-
NORTHWEST WISCONSIN

CITY           SKY/WX    TMP DP  RH WIND       PRES   REMARKS
SUPERIOR ARPT  LGT SNOW  11   8  87 NE15G22   30.36S WCI  -6
ASHLAND        CLOUDY     9   0  67 E8        30.36R WCI  -3
HAYWARD        CLOUDY     8  -3  61 E13G22    30.28R WCI  -8
SIREN          CLOUDY    13   6  74 NE7       30.26F WCI   2
CUMBERLAND     CLOUDY    12   1  62 NE15      30.21S WCI  -4
RICE LAKE      CLOUDY    12   2  64 NE14G20   30.23S WCI  -3
CHETEK         CLOUDY    11   1  62 MISG      30.23R
LADYSMITH      CLOUDY     9   2  71 NE14      30.25S WCI  -7
EAU CLAIRE     LGT SNOW  14   8  77 NE14      30.19S WCI  -1
MENOMONIE      CLOUDY    15   9  77 NE15G21   30.20S HAZE    WCI  -1
NEW RICHMOND   CLOUDY    14   5  67 NE14G23   30.19F WCI  -1
OSCEOLA        CLOUDY    15   5  63 NE16      30.24F WCI   0
$$

WIZ003>005-009-010-017-018-011200-
NORTH CENTRAL WISCONSIN

CITY           SKY/WX    TMP DP  RH WIND       PRES   REMARKS
MANITOWISH WTR CLOUDY     3  -3  76 NE6       30.25S WCI  -8
ARBOR VITAE    CLOUDY     5  -1  77 NE6       30.23F WCI  -6
WOODRUFF       CLOUDY     5  -1  77 NE6       30.23F WCI  -6
RHINELANDER    CLOUDY     5  -2  72 NE12      30.21F WCI -11
EAGLE RIVER    CLOUDY     4  -2  76 NE9       30.23S WCI -11
LAND O LAKES   CLOUDY     4  -1  80 N6        30.25S WCI  -7
PHILLIPS       CLOUDY     4  -2  76 NE14      30.23S WCI -13
TOMAHAWK       CLOUDY     6  -1  74 CALM      30.23F
MEDFORD        CLOUDY     9   1  71 NE16      30.18S WCI  -9
MERRILL        CLOUDY     9   1  72 NE8       30.22S WCI  -4
$$

WIZ029-030-035-036-043>047-011200-
CENTRAL WISCONSIN

CITY           SKY/WX    TMP DP  RH WIND       PRES   REMARKS
WAUSAU         CLOUDY    10   1  67 NE8G16    30.20F WCI  -2
MOSINEE        LGT SNOW  10   7  85 NE17      30.21S WCI  -7
MARSHFIELD     LGT SNOW  11   6  81 E16G26    30.16F WCI  -6
STEVENS POINT  LGT SNOW   9   5  82 NE15G23   30.19F WCI  -7
WAUPACA        LGT SNOW  14   9  79 NE12      30.21F WCI   0
WAUTOMA        LGT SNOW  13   9  84 NE13      30.18F FOG     WCI  -1
WISC RAPIDS    LGT SNOW  12   6  77 NE13G24   30.19F WCI  -3
CAMP DOUGLAS   LGT SNOW  12  12 100 NE6       30.15F FOG     WCI   3
$$

WIZ011>013-019>022-031-037>040-048>050-011200-
NORTHEAST WISCONSIN

CITY           SKY/WX    TMP DP  RH WIND       PRES   REMARKS
ANTIGO         CLOUDY     7   2  79 NE14      30.20S WCI  -9
SHAWANO        CLOUDY    14   6  69 NE13      30.26S WCI   0
OCONTO         CLOUDY    13   5  73 MISG      30.28R
STURGEON BAY   CLOUDY    12   3  67 NE15      30.27S WCI  -4
GREEN BAY      LGT SNOW  14   7  73 NE20      30.24S WCI  -3
MANITOWOC      LGT SNOW  16  14  92 N10       30.21R FOG     WCI   4
APPLETON       NOT AVBL
CLINTONVILLE   LGT SNOW  12   5  73 NE14      30.24F WCI  -3
OSHKOSH        LGT SNOW  14   9  80 NE22G28   30.18F VSB 1   WCI  -4
$$

WIZ032>034-041-042-053>061-011200-
SOUTHWEST WISCONSIN

CITY           SKY/WX    TMP DP  RH WIND       PRES   REMARKS
LA CROSSE      LGT SNOW  20  16  84 E7        30.12F FOG     WCI  11
SPARTA         LGT SNOW  15  11  83 NE17G23   30.15S WCI  -1
VIROQUA        CLOUDY    16  13  86 E21G33    30.05S WCI  -1
BOSCOBEL       LGT SNOW  20  16  84 NE8G23    30.06F VSB 1   WCI  10
PRAIRIE DU CHI LGT SNOW  24  19  81 E10G21    30.02S WCI  13
PLATTEVILLE    CLOUDY    24  22  93 NE21G26   29.98S VSB 1   WCI   9
$$

WIZ056-057-062-063-064-067-068-011200-
SOUTH CENTRAL WISCONSIN

CITY           SKY/WX    TMP DP  RH WIND       PRES   REMARKS
REEDSBURG      LGT SNOW  14  11  86 NE10      30.12S WCI   1
BARABOO/DELLS  LGT SNOW  14  10  85 NE13G23   30.11F VSB 3/4 WCI   0
LONE ROCK      LGT SNOW  18  13  80 NE13G29   30.09F WCI   5
MINERAL POINT  LGT SNOW  21  19  93 NE23      30.00S WCI   5
MADISON        LGT SNOW  17  13  84 NE21G28   30.08F VSB 1   WCI   0
MIDDLETON      CLOUDY    18  14  83 NE17G28   30.08F WCI   3
WATERTOWN      LGT SNOW  21  19  94 NE12G18   30.09F WCI   9
MONROE         LGT SNOW  27  25  93 NE15G23   30.00S WCI  15
JANESVILLE     LGT SNOW  28  28 100 NE20      30.03F WCI  15
$$

WIZ051-052-058>065-066-070>072-011200-
SOUTHEAST WISCONSIN

CITY           SKY/WX    TMP DP  RH WIND       PRES   REMARKS
MILWAUKEE      LGT SNOW  25  21  85 NE24      30.11F VSB 3/4 WCI   9
WAUKESHA       LGT SNOW  23  21  93 NE17G24   30.11F WCI   9
MILWAUKEE/TIMM LGT SNOW  25  21  86 NE12G20   30.13S WCI  14
RACINE         LGT SNOW  27  23  85 NE20G29   30.10F FOG     WCI  13
BURLINGTON     LGT SNOW  24  23  94 NE15      30.06F WCI  12
KENOSHA        LGT SNOW  28  26  92 NE20G26   30.07F VSB 3/4 WCI  15
FOND DU LAC    LGT SNOW  15  10  80 NE17G28   30.17F WCI  -1
SHEBOYGAN      LGT SNOW  17  13  84 N10       30.17S VSB 1   WCI   5
WEST BEND      LGT SNOW  19  16  86 NE8       30.14S WCI   9
JUNEAU         LGT SNOW  16  13  88 N14G22    30.13F WCI   1
$$

LSZ147-162-011200-
LAKE SUPERIOR

STATION/POSITION TIME  TEMP    WIND        PRES    WAVE
                       AIR SEA DIR/SP/G            HT/PER
                 (UTC) (F)     (DEG/KT/KT) (MB)    (FT/S)
DEVILS ISLAND    1100   10      50/ 20/ 23 1031.0F
PORT WING        1000   13      70/ 14/ 19 1028.4
SAXON HARBOR     1000    9      CALM  / 11 1028.4F
$$

LMZ867-665-643>646-011200-
LAKE MICHIGAN

STATION/POSITION TIME  TEMP    WIND        PRES    WAVE
                       AIR SEA DIR/SP/G            HT/PER
                 (UTC) (F)     (DEG/KT/KT) (MB)    (FT/S)
NORTHPORT PIER   1028   14      20/ 18/ 22 1026.1S
SISTER BAY       1028   13     360/ 15/ 21   N/A
KEWAUNEE LAKESHO 1000   15      10/ 12/ 16 1022.9F
SHEBOYGAN LAKESH 1100   23      50/ 28/ 30 1022.7R
PORT WASHINGTON  1040   26      60/ 20/ 26 1022.0S
MILWAUKEE LAKESH 1000   26      50/ 25/ 29   N/A
KENOSHA   LAKESH 1100   29      60/ 25/ 28 1018.3F
$$

TC  - TEMPERATURE IN CELSIUS
VSB - VISIBILITY IN STATUTE MILES
WCI - WIND CHILL INDEX
HX  - HEAT INDEX




USA.gov is the U.S. government's official web portal to all federal, state and local government web resources and services.